Lid_Strength_Index
14 14 13 12 13 14 15 16 16 18 18 18 18 15 14 14 14 13 15 12 11 10 10 10 10 10 10 9 9 9 9 9 10 10 9 9 9 9
15 15 15 13 13 12 13 15 16 14 16 16 17 17 14 13 14 14 16 13 12 11 11 10 10 10 10 10 10 10 10 10 10 11 11 10 10 10
15 16 15 15 14 13 15 14 14 16 14 15 17 17 15 14 15 15 15 15 15 12 11 11 11 11 11 10 11 10 10 10 11 11 11 11 11 10
14 15 15 14 15 14 14 14 13 14 13 14 18 17 16 15 15 16 16 16 16 13 12 11 11 11 11 11 11 11 11 11 11 12 11 11 11 11
13 13 13 14 15 14 15 14 13 14 15 16 17 18 17 16 18 16 17 17 17 15 12 12 12 12 12 11 12 12 12 12 12 12 12 12 12 12
13 13 13 14 13 14 14 14 14 14 14 15 18 18 18 18 16 17 19 18 17 17 14 13 13 12 12 11 12 12 13 12 13 13 12 12 12 12
12 12 12 13 12 12 13 13 13 14 14 14 15 19 19 18 18 17 16 17 17 17 17 17 16 15 14 12 13 12 12 13 13 13 13 13 12 12
13 12 12 12 11 10 10 10 11 13 13 13 14 15 16 16 16 17 16 18 19 17 18 18 17 17 16 15 12 12 12 13 13 13 13 13 12 13
13 13 12 11 11 11 10 9 10 10 10 12 13 13 14 15 16 16 16 16 16 17 16 18 18 18 17 16 13 12 12 13 13 13 13 13 12 13
14 13 13 12 12 11 11 11 11 10 11 11 11 12 12 14 14 14 15 15 16 17 16 18 18 19 17 17 13 12 12 12 13 13 13 13 13 13
15 15 14 14 12 10 11 12 11 11 9 9 9 9 9 10 13 14 16 17 18 18 17 17 18 17 18 18 16 12 12 12 12 13 13 13 13 14
16 15 14 14 12 11 12 11 12 12 11 10 10 9 9 10 10 14 14 17 16 19 17 18 19 19 20 18 17 15 14 12 13 12 13 13 14 16
17 17 15 13 12 11 10 11 11 10 10 11 11 11 11 11 11 13 14 14 15 16 17 16 18 18 19 21 18 17 16 15 14 14 13 13 14 15
18 17 16 13 12 11 11 10 8 8 10 11 11 11 11 11 11 11 13 13 13 14 17 15 18 18 20 21 21 18 18 16 16 17 17 15 15 14
17 17 15 14 14 13 11 9 9 9 10 10 12 12 11 11 11 11 12 13 14 14 16 15 17 17 17 20 21 19 19 18 17 18 18 18 18 17
17 17 17 15 14 13 14 11 10 9 9 9 10 11 11 11 12 12 14 15 16 18 17 15 17 17 17 19 19 20 19 20 18 18 18 18 17 17
16 17 18 17 17 16 15 11 10 10 10 8 9 10 11 12 13 12 13 15 16 18 20 19 18 18 19 19 20 19 20 20 18 19 19 19 18 17
14 17 18 18 18 17 16 14 12 11 10 9 9 9 11 12 12 13 13 15 16 19 20 20 21 21 22 21 19 20 20 20 19 19 19 21 20 18
15 18 19 19 17 16 15 13 11 10 8 9 9 10 11 11 12 13 14 15 16 18 20 20 21 21 24 25 22 18 21 20 20 20 20 20 21 19
16 17 18 18 17 16 15 13 10 9 9 8 9 10 11 11 12 14 14 15 16 18 20 20 21 21 22 22 24 21 18 20 20 21 21 20 20 18
17 16 16 17 16 14 13 11 10 10 9 8 10 10 11 12 13 14 14 15 15 17 21 21 20 19 21 21 23 23 20 18 19 20 21 22 23 22
18 17 14 12 14 14 12 9 9 9 9 8 9 10 11 12 14 15 15 16 16 17 19 19 19 20 21 22 23 23 23 21 18 18 19 20 22 24
18 17 15 12 10 9 9 9 9 10 10 10 11 11 12 13 13 14 15 15 17 18 20 21 20 20 21 22 23 23 23 23 23 23 22 20 20 19